Flag for Australia Weather past 2 weeks in Alice Springs, Northern Territory, Australia

Now
59 °F

Sunny.


Feels Like: 56 °F
Forecast: 37 / 62 °F
Wind: 14 mph from Southeast

Location: Alice Springs Aerodrome

Current Time: Aug 4, 2015 at 1:34:41 PM

Latest Report: Aug 4, 2015 at 1:00 PM


Visibility: 10 mi

Pressure: 30.33 "Hg (28.31 "Hg at 581m altitude)

Humidity: 39%

Dew point: 34 °F

Location of Alice SpringsLocation

Historic Weather in Alice Springs — Graph

°F

Alice Springs temperature yesterday

Maximum temperature yesterday: 63 °F (at 3:00 PM)
Minimum temperature yesterday: 41 °F (at 5:30 AM)
Average temperature yesterday: 51 °F

Past Weeks' High & Low Weather Summary

 TemperatureHumidityPressure
High84 °F (Aug 1, 2:00 PM)93% (Jul 21, 6:00 AM)30.54 "Hg (Jul 21, 6:00 AM)
Low28 °F (Jul 29, 5:30 AM)1% (Jul 21, 3:00 PM)29.98 "Hg (Aug 1, 3:30 PM)
Average57 °F36%30.23 "Hg
* Reported Jul 20 12:30 PM — Aug 4 12:30 PM, Alice Springs, Weather by CustomWeather, © 2015

Note: Actual official high and low records may vary slightly from our data, if they occured in-between our weather recording intervals... More about our weather records

Advertising

Alice Springs weather history for previous 24 hours

 ConditionsComfort  
Time TempWeatherWind HumidityBarometerVisibility
12:30 PM
Tue, Aug 4
59 °FPassing clouds.17 mph36%30.36 "HgN/A
12:00 PM57 °FPassing clouds.16 mph41%30.36 "HgN/A
11:30 AM57 °FPassing clouds.16 mph41%30.39 "HgN/A
11:00 AM54 °FPassing clouds.16 mph47%30.42 "HgN/A
10:30 AM55 °FPartly sunny.16 mph44%30.42 "HgN/A
10:00 AM54 °FPartly sunny.15 mph47%30.42 "HgN/A
9:30 AM52 °FPartly sunny.12 mph47%30.42 "HgN/A
9:00 AM50 °FPassing clouds.10 mph50%30.39 "HgN/A
8:30 AM45 °FPassing clouds.5 mph61%30.39 "HgN/A
8:00 AM39 °FPassing clouds.3 mph65%30.39 "HgN/A
7:30 AM36 °FPassing clouds.6 mph75%30.36 "HgN/A
7:00 AM34 °FSunny.6 mph81%30.36 "Hg10 mi
6:30 AM34 °FClear.6 mph75%30.36 "Hg10 mi
6:00 AM37 °FClear.5 mph70%30.36 "Hg10 mi
5:30 AM36 °FClear.3 mph75%30.36 "HgN/A
5:00 AM36 °FClear.3 mphN/A30.33 "HgN/A
4:30 AM37 °FClear.5 mph70%30.33 "HgN/A
4:00 AM39 °FClear.5 mph65%30.33 "HgN/A
3:30 AM37 °FClear.No wind65%30.33 "HgN/A
3:00 AM37 °FClear.3 mph65%30.33 "HgN/A
2:30 AM39 °FClear.6 mph65%30.33 "HgN/A
2:00 AM39 °FClear.3 mph61%30.36 "HgN/A
1:30 AM39 °FClear.5 mph56%30.36 "HgN/A
1:00 AM39 °FClear.6 mph61%30.36 "HgN/A
12:30 AM41 °FClear.6 mph61%30.36 "HgN/A
12:00 AM41 °FClear.8 mph61%30.36 "HgN/A
11:30 PM
Mon, Aug 3
43 °FClear.6 mph53%30.36 "HgN/A
11:00 PM45 °FClear.6 mph53%30.36 "HgN/A
10:30 PM45 °FClear.6 mph53%30.36 "HgN/A
10:00 PM45 °FClear.6 mph53%30.36 "HgN/A
9:30 PM45 °FClear.7 mph53%30.36 "HgN/A
9:00 PM45 °FClear.7 mph53%30.36 "HgN/A
8:30 PM46 °FClear.7 mph50%30.36 "HgN/A
8:00 PM48 °FClear.8 mph46%30.33 "HgN/A
7:30 PM50 °FClear.8 mph40%30.33 "HgN/A
7:00 PM52 °FClear.7 mph38%30.33 "HgN/A
6:30 PM55 °FClear.9 mph33%30.30 "HgN/A
6:00 PM57 °FClear.9 mph31%30.30 "HgN/A
5:30 PM59 °FSunny.14 mph27%30.30 "HgN/A
5:00 PM61 °FSunny.13 mph25%30.30 "Hg10 mi
4:30 PM61 °FSunny.13 mph25%30.30 "Hg10 mi
4:00 PM61 °FSunny.15 mph25%30.30 "Hg10 mi
3:30 PM63 °FSunny.13 mph24%30.30 "Hg10 mi
3:00 PM63 °FSunny.15 mph24%30.30 "Hg10 mi
2:30 PM61 °FSunny.13 mph27%30.30 "Hg10 mi
1:30 PM61 °FSunny.15 mph31%30.33 "Hg10 mi
1:00 PM59 °FSunny.15 mph34%30.36 "Hg10 mi
Weather by CustomWeather, © 2015

See weather overviewHow to use our weather pages